Regional Weather Roundup
Issued by NWS

Home | Current Version | Previous Version | Text Only | Print | Product List | Glossary Off
Versions: 1 2 3 4 5 6 7 8 9 10 11 12 13 14 15 16 17 18 19 20 21 22 23 24 25 26 27 28 29 30 31 32 33 34 35 36 37 38 39 40 41 42 43 44 45 46 47 48 49 50

502
ASUS43 KMKX 240000
RWRWI

WISCONSIN REGIONAL WEATHER ROUNDUP
NATIONAL WEATHER SERVICE MILWAUKEE/SULLIVAN WI
700 PM CDT SUN APR 23 2017

NOTE: "FAIR" INDICATES FEW OR NO CLOUDS BELOW 12,000 FEET WITH NO
SIGNIFICANT WEATHER AND/OR OBSTRUCTIONS TO VISIBILITY.

WIZ001-002-006>008-014>016-023>028-240100-
NORTHWEST WISCONSIN

CITY           SKY/WX    TMP DP  RH WIND       PRES   REMARKS
SUPERIOR ARPT  CLOUDY    36  27  70 NE16G22   30.11F WCI  26
ASHLAND        CLOUDY    36  28  73 NE15      30.12F WCI  27
6HR MIN TEMP:  35; 6HR MAX TEMP:  39; 6HR PCP: TRACE;

HAYWARD        CLOUDY    39  31  72 NE16      30.03F WCI  30
6HR MIN TEMP:  39; 6HR MAX TEMP:  47;

SIREN          CLOUDY    46  34  63 NE12G18   29.99F
CUMBERLAND     CLOUDY    50  36  57 NE12      29.96F
RICE LAKE      CLOUDY    55  39  54 N13       29.96F
6HR MIN TEMP:  53; 6HR MAX TEMP:  62;

CHETEK         CLOUDY    60  43  54 E5        29.95F
LADYSMITH      CLOUDY    53  39  58 NE13      29.99F
6HR MIN TEMP:  53; 6HR MAX TEMP:  59;

EAU CLAIRE     CLOUDY    64  41  42 E7        29.92F
6HR MIN TEMP:  60; 6HR MAX TEMP:  68;

MENOMONIE      CLOUDY    66  37  34 SE5       29.92F
6HR MIN TEMP:  60; 6HR MAX TEMP:  71;

NEW RICHMOND   CLOUDY    64  39  39 SE5       29.92F
OSCEOLA        CLOUDY    59  42  53 NE13      29.94F
$$

WIZ003>005-009-010-017-018-240100-
NORTH CENTRAL WISCONSIN

CITY           SKY/WX    TMP DP  RH WIND       PRES   REMARKS
MANITOWISH WTR MOCLDY    39  33  79 E8        30.06F WCI  34
6HR MIN TEMP:  35; 6HR MAX TEMP:  40;

ARBOR VITAE    CLOUDY    42  34  73 NE7       30.05F
WOODRUFF       CLOUDY    42  34  73 NE7       30.05F
RHINELANDER    CLOUDY    46  35  65 NE9       30.04F
6HR MIN TEMP:  44; 6HR MAX TEMP:  51; 6HR PCP: TRACE;

EAGLE RIVER    MOCLDY    40  31  70 E12       30.06F WCI  34
LAND O LAKES   CLOUDY    41  30  66 NE5       30.09F
6HR MIN TEMP:  35; 6HR MAX TEMP:  41;

PHILLIPS       CLOUDY    45  36  70 NE10G16   30.01F
6HR MIN TEMP:  45; 6HR MAX TEMP:  52;

TOMAHAWK       PTCLDY    49  36  60 NE9       30.03S
MEDFORD        CLOUDY    60  43  52 E3        29.97F
MERRILL        PTCLDY    56  40  54 SE14      30.00S
6HR MIN TEMP:  51; 6HR MAX TEMP:  60;

$$

WIZ029-030-035-036-043>047-240100-
CENTRAL WISCONSIN

CITY           SKY/WX    TMP DP  RH WIND       PRES   REMARKS
WAUSAU         PTCLDY    54  41  61 E17       29.99S
6HR MIN TEMP:  54; 6HR MAX TEMP:  64;

MOSINEE        NOT AVBL
MARSHFIELD     PTCLDY    59  43  55 SE15G23   29.97R
6HR MIN TEMP:  59; 6HR MAX TEMP:  68;

STEVENS POINT  PTCLDY    53  40  62 E15       30.02S
WAUPACA        PTCLDY    54  40  60 E12       30.06S
6HR MIN TEMP:  54; 6HR MAX TEMP:  63;

WAUTOMA        PTCLDY    55  42  61 E12G21    30.03S
6HR MIN TEMP:  55; 6HR MAX TEMP:  70;

WISC RAPIDS    CLEAR     59  45  59 SE10      30.00S
6HR MIN TEMP:  59; 6HR MAX TEMP:  72;

CAMP DOUGLAS   NOT AVBL
$$

WIZ011>013-019>022-031-037>040-048>050-240100-
NORTHEAST WISCONSIN

CITY           SKY/WX    TMP DP  RH WIND       PRES   REMARKS
ANTIGO         MOCLDY    51  37  58 SE12      30.04S
SHAWANO        CLOUDY    47  36  64 E10       30.09S
6HR MIN TEMP:  47; 6HR MAX TEMP:  58;

OCONTO         CLOUDY    40  30  66 E12G18    30.12S WCI  33
STURGEON BAY   CLOUDY    39  28  64 NE12      30.13R WCI  32
6HR MIN TEMP:  39; 6HR MAX TEMP:  47;

GREEN BAY      CLOUDY    45  38  76 NE14      30.10S
6HR MIN TEMP:  45; 6HR MAX TEMP:  52;

MANITOWOC      NOT AVBL
APPLETON       PTCLDY    48  36  61 E16       30.06R
CLINTONVILLE   MOCLDY    46  34  61 E13       30.08R
OSHKOSH        CLOUDY    48  39  71 E13G20    30.06R
6HR MIN TEMP:  48; 6HR MAX TEMP:  57;

$$

WIZ032>034-041-042-053>061-240100-
SOUTHWEST WISCONSIN

CITY           SKY/WX    TMP DP  RH WIND       PRES   REMARKS
LA CROSSE      CLOUDY    70  35  27 S7        29.94F
6HR MIN TEMP:  70; 6HR MAX TEMP:  75;

SPARTA         MOCLDY    68  31  25 S3        29.96F
6HR MIN TEMP:  68; 6HR MAX TEMP:  72;

VIROQUA        CLOUDY    65  34  31 SW5       29.98F
6HR MIN TEMP:  65; 6HR MAX TEMP:  71;

BOSCOBEL       CLOUDY    70  30  22 SW6       29.98F
6HR MIN TEMP:  70; 6HR MAX TEMP:  74;

PRAIRIE DU CHI CLEAR     69  29  22 SW3       29.98S
PLATTEVILLE    CLEAR     69  36  30 SW5       30.01S
$$

WIZ056-057-062-063-064-067-068-240100-
SOUTH CENTRAL WISCONSIN

CITY           SKY/WX    TMP DP  RH WIND       PRES   REMARKS
REEDSBURG      CLEAR     67  35  30 SW6       29.97F
6HR MIN TEMP:  67; 6HR MAX TEMP:  72;

BARABOO/DELLS  CLEAR     68  31  25 SW6       29.98S
LONE ROCK      NOT AVBL
MINERAL POINT  CLOUDY    68  32  26 S5        30.01S
MADISON        MOCLDY    69  33  26 VRB5      29.99S
6HR MIN TEMP:  67; 6HR MAX TEMP:  72;

MIDDLETON      CLEAR     68  32  26 SW7       30.00S
6HR MIN TEMP:  68; 6HR MAX TEMP:  73;

WATERTOWN      MOCLDY    53  40  61 E14       30.03R
MONROE         CLEAR     68  32  26 W7        30.01S
JANESVILLE     NOT AVBL
$$

WIZ051-052-058>065-066-070>072-240100-
SOUTHEAST WISCONSIN

CITY           SKY/WX    TMP DP  RH WIND       PRES   REMARKS
MILWAUKEE      MOCLDY    41  35  79 N12       30.09F
6HR MIN TEMP:  41; 6HR MAX TEMP:  71;

WAUKESHA       CLEAR     43  34  70 NE14      30.08S
MILWAUKEE/TIMM CLEAR     41  32  70 NE10      30.10S
RACINE         CLEAR     41  35  79 NE12      30.09F
6HR MIN TEMP:  41; 6HR MAX TEMP:  70;

KENOSHA        CLEAR     46  37  71 NE8       30.07S
6HR MIN TEMP:  46; 6HR MAX TEMP:  70;

FOND DU LAC    CLOUDY    47  35  63 E14       30.07R
6HR MIN TEMP:  47; 6HR MAX TEMP:  68;

SHEBOYGAN      PTCLDY    39  33  79 NE17      30.10S WCI  30
6HR MIN TEMP:  39; 6HR MAX TEMP:  47;

WEST BEND      PTCLDY    43  34  70 E13       30.08S
JUNEAU         CLOUDY    52  39  62 E12       30.04S
$$

LSZ147-162-240100-
LAKE SUPERIOR

STATION/POSITION TIME  TEMP    WIND        PRES    WAVE
                       AIR SEA DIR/SP/G            HT/PER
                 (UTC) (F)     (DEG/KT/KT) (MB)    (FT/S)
DEVILS ISLAND    2300   34      80/ 14/ 15 1022.2F
SAXON HARBOR     2340   37      60/ 13/ 17 1020.0S
$$

LMZ867-665-643>646-240100-
LAKE MICHIGAN

STATION/POSITION TIME  TEMP    WIND        PRES    WAVE
                       AIR SEA DIR/SP/G            HT/PER
                 (UTC) (F)     (DEG/KT/KT) (MB)    (FT/S)
CHAMBERS ISLAND  2330   38      20/ 10/ 13 1020.3S
N MID LAKE BUOY  2250   37 37   70/  6/  8 1022.0S   1/ 4
NORTHPORT PIER   2340   39      60/  7/ 10 1020.7S
KEWAUNEE LAKESHO 2330   38      50/ 14/ 18 1019.7R
SHEBOYGAN LAKESH 2300   38      30/ 16/ 17 1019.7R
PORT WASHINGTON  2330   41      40/ 13/ 19 1020.0F
MILWAUKEE LAKESH 2330   40      20/ 15/ 16   N/A
KENOSHA   LAKESH 2300   42      20/ 16/ 20 1018.3
$$

TC  - TEMPERATURE IN CELSIUS
VSB - VISIBILITY IN STATUTE MILES
WCI - WIND CHILL INDEX
HX  - HEAT INDEX





USA.gov is the U.S. government's official web portal to all federal, state and local government web resources and services.